Weather History for Malmstrom AFB, MT

Change the Weather History Date:

Friday, August 2, 2013

  Actual Average (KGTF) Record (KGTF)
Temperature  
Mean Temperature 62 °F 69 °F  
Max Temperature 72 °F 86 °F 99 °F (1893)
Min Temperature 53 °F 53 °F 41 °F (2002)
Degree Days  
Heating Degree Days 2 1  
Month to date heating degree days 2  
Since 1 June heating degree days 243  
Since 1 July heating degree days 52  
Cooling Degree Days 0 5  
Month to date cooling degree days 10  
Year to date cooling degree days 173  
Since 1 June cooling degree days 166  
Growing Degree Days 12 (Base 50)    
Moisture  
Dew Point 52 °F    
Average Humidity 77    
Maximum Humidity 100    
Minimum Humidity 35    
Precipitation  
Precipitation 0.66 in 0.04 in 0.71 in (1970)
Month to date precipitation 0.08  
Year to date precipitation 9.84  
Snow  
Snow 0.00 in 0.00 in 0.00 in (2002)
Month to date snowfall 0.0  
Since 1 June snowfall 0.3  
Since 1 July snowfall 0.0  
Snow Depth -    
Sea Level Pressure  
Sea Level Pressure 30.02 in    
Wind  
Wind Speed 7 mph (West)    
Max Wind Speed 20 mph    
Max Gust Speed 29 mph    
Visibility 9 miles    
Events Rain , Thunderstorm    
T = Trace of Precipitation, MM = Missing Value Source: NWS Daily Summary

Daily Weather History Graph

Daily Weather History Graph

Search for Another Location

Airport:

Trip Planner

Search our weather history database for the weather conditions in past years. The results will help you decide how hot, cold, wet, or windy it might be!

Date:

Astronomy

Aug. 02, 2013 Rise Set
Actual Time 6:04 AM MDT 8:56 PM MDT
Civil Twilight 5:28 AM MDT 9:32 PM MDT
Nautical Twilight 4:42 AM MDT 10:17 PM MDT
Astronomical Twilight 3:47 AM MDT 11:12 PM MDT
Moon 2:24 AM MDT (8/2) 6:00 PM MDT (8/2)
Length of Visible Light 16h 04m
Length of Day
14h 52m
Waning Crescent, 15% of the Moon is Illuminated
Aug 2
Waning Crescent
Aug 6
New
Aug 14
First Quarter
Aug 20
Full
Aug 28
Last Quarter

Hourly Weather History & Observations

Time (MDT) Temp. Dew Point Humidity Pressure Visibility Wind Dir Wind Speed Gust Speed Precip Events Conditions
12:56 AM 55.0 °F 53.1 °F 93% 30.01 in 10.0 mi NNE 5.8 mph - 0.00 in   Mostly Cloudy
1:54 AM 55.4 °F 53.6 °F 94% 29.98 in 6.0 mi West 6.9 mph - 0.04 in Rain Rain
1:56 AM 55.9 °F 54.0 °F 93% 30.02 in 6.0 mi West 6.9 mph - 0.04 in Rain Light Rain
2:18 AM 55.4 °F 53.6 °F 94% 29.97 in 10.0 mi Variable 3.5 mph - 0.01 in Rain , Thunderstorm Light Thunderstorms and Rain
2:47 AM 55.4 °F 53.6 °F 94% 29.93 in 5.0 mi East 8.1 mph - 0.17 in Rain Light Rain
2:56 AM 55.9 °F 54.0 °F 93% 29.98 in 6.0 mi East 11.5 mph - 0.20 in Rain Rain
3:05 AM 57.2 °F 53.6 °F 88% 29.95 in 6.0 mi Variable 5.8 mph - 0.02 in Rain , Thunderstorm Thunderstorms and Rain
3:20 AM 57.2 °F 53.6 °F 88% 29.97 in 8.0 mi SW 9.2 mph 18.4 mph 0.03 in Rain Light Rain
3:34 AM 57.2 °F 55.4 °F 94% 29.99 in 5.0 mi SSW 12.7 mph - 0.07 in Rain , Thunderstorm Thunderstorms and Rain
3:42 AM 55.4 °F 55.4 °F 100% 30.01 in 6.0 mi SSW 13.8 mph - 0.08 in Rain , Thunderstorm Light Thunderstorms and Rain
3:56 AM 55.9 °F 53.1 °F 90% 30.02 in 2.0 mi SSW 4.6 mph 18.4 mph 0.28 in Rain , Thunderstorm Light Thunderstorms and Rain
4:56 AM 54.0 °F 51.1 °F 90% 29.97 in 10.0 mi East 16.1 mph 28.8 mph 0.14 in Rain Light Rain
5:03 AM 53.6 °F 51.8 °F 94% 29.92 in 10.0 mi East 13.8 mph - 0.00 in   Mostly Cloudy
5:56 AM 54.0 °F 53.1 °F 97% 30.02 in 10.0 mi ESE 3.5 mph - 0.00 in   Overcast
6:14 AM 55.4 °F 53.6 °F 94% 29.96 in 10.0 mi Calm Calm - N/A   Overcast
6:34 AM 55.4 °F 53.6 °F 94% 29.96 in 10.0 mi Calm Calm - N/A   Overcast
6:56 AM 55.9 °F 53.1 °F 90% 30.02 in 10.0 mi Calm Calm - N/A   Mostly Cloudy
7:56 AM 57.0 °F 54.0 °F 89% 30.02 in 10.0 mi Calm Calm - N/A   Mostly Cloudy
8:56 AM 60.1 °F 54.0 °F 80% 30.03 in 10.0 mi Calm Calm - N/A   Scattered Clouds
9:56 AM 62.1 °F 55.0 °F 78% 30.04 in 10.0 mi NNW 3.5 mph - N/A   Mostly Cloudy
10:56 AM 64.9 °F 55.0 °F 70% 30.03 in 10.0 mi Calm Calm - N/A   Partly Cloudy
11:56 AM 66.9 °F 50.0 °F 54% 30.03 in 10.0 mi South 9.2 mph - N/A   Partly Cloudy
12:56 PM 69.1 °F 46.9 °F 45% 30.01 in 10.0 mi SSW 13.8 mph 19.6 mph N/A   Mostly Cloudy
1:56 PM 72.0 °F 46.9 °F 41% 30.00 in 10.0 mi SW 19.6 mph 28.8 mph N/A   Clear
2:56 PM 72.0 °F 46.0 °F 40% 30.00 in 10.0 mi SSW 18.4 mph - N/A   Clear
3:56 PM 72.0 °F 43.0 °F 35% 30.04 in 10.0 mi WSW 19.6 mph 27.6 mph N/A   Scattered Clouds
4:56 PM 69.1 °F 43.0 °F 39% 30.06 in 10.0 mi WSW 10.4 mph 18.4 mph N/A   Scattered Clouds
5:56 PM 70.0 °F 50.0 °F 49% 30.06 in 10.0 mi North 6.9 mph - N/A   Clear
6:56 PM 69.1 °F 48.9 °F 49% 30.06 in 10.0 mi NNW 9.2 mph - N/A   Clear
7:56 PM 66.0 °F 48.9 °F 54% 30.09 in 10.0 mi North 12.7 mph - N/A   Clear
8:56 PM 62.1 °F 51.1 °F 67% 30.12 in 10.0 mi North 8.1 mph - N/A   Clear
9:56 PM 59.0 °F 52.0 °F 78% 30.14 in 10.0 mi North 8.1 mph - N/A   Clear
10:56 PM 57.0 °F 52.0 °F 83% 30.16 in 10.0 mi North 5.8 mph - N/A   Scattered Clouds
11:56 PM 57.9 °F 52.0 °F 81% 30.16 in 10.0 mi Calm Calm - N/A   Clear